JPSS-1

Last updated on July 6, 2021, 3:27 p.m. UTC

1 43013U 17073A   21187.14420346  .00000002  00000-0  21777-4 0  9992
2 43013  98.7211 125.5023 0001007  71.4792 288.6493 14.19548344188096
UTC
Height (km)
Latitude
Longitude
Inclination
Orbital Period
UTC large
Height (km)
Speed (km/s)
/
Latitude / Longitude
Inclination (degrees)
Orbital Period (minutes)
Azimuth
Elevation
Range (km)
Doppler Factor
iOS Compass Heading
iOS Angle